Volver al catálogo

THORAD AGENA D DEB

ActivoLEO
NORAD 4776·DEBRIS·🇺🇸 United States

Lanzado Apr 8, 1970 desde Vandenberg Space Force Base

Loading…

Próximos Pases (próximas 24 horas)

TLE

ActualizadoSource: Space-Track

Época: Sep 14, 2026, 09:30 UTC

1 04776U 70025DW  26257.39608627  .00001046  00000-0  71523-3 0  9993
2 04776 100.1362 222.4940 0015527 130.5339  23.1811 14.02385951750013

Sigue THORAD AGENA D DEB en tiempo real con AllMySat

Download on the App Store